Weather History for KSAF - January, 2014

Change the Weather History Date:

Friday, January 17, 2014

  Actual Average Record
Temperature  
Mean Temperature 31 °F -  
Max Temperature 48 °F 44 °F - (-1)
Min Temperature 14 °F 28 °F - (-1)
Degree Days  
Heating Degree Days 34    
Moisture  
Dew Point 8 °F    
Average Humidity 42    
Maximum Humidity 80    
Minimum Humidity 18    
Precipitation  
Precipitation 0.00 in - - ()
Sea Level Pressure  
Sea Level Pressure 30.23 in    
Wind  
Wind Speed 5 mph (North)    
Max Wind Speed 13 mph    
Max Gust Speed -    
Visibility 10 miles    
Events      
Averages and records for this station are not official NWS values.
T = Trace of Precipitation, MM = Missing Value Source: NWS Daily Summary

Daily Weather History Graph

Daily Weather History Graph

Search for Another Location

Airport or City:

Trip Planner

Search our weather history database for the weather conditions in past years. The results will help you decide how hot, cold, wet, or windy it might be!

Date:

Astronomy

Jan. 17, 2014 Rise Set
Actual Time 7:12 AM MST 5:16 PM MST
Civil Twilight 6:45 AM MST 5:44 PM MST
Nautical Twilight 6:13 AM MST 6:15 PM MST
Astronomical Twilight 5:43 AM MST 6:46 PM MST
Moon 7:00 PM MST (1/17) 7:46 AM MST (1/17)
Length of Visible Light 10h 59m
Length of Day
10h 04m
Full, 98% of the Moon is Illuminated
Jan 17
Full
Jan 23
Last Quarter
Jan 30
New
Feb 6
First Quarter
Feb 14
Full

Hourly Weather History & Observations

Time (MST) Temp. Windchill Dew Point Humidity Pressure Visibility Wind Dir Wind Speed Gust Speed Precip Events Conditions
12:53 AM 27.0 °F - 7.0 °F 43% 30.22 in 10.0 mi Calm Calm - N/A   Clear
1:53 AM 27.0 °F 23.0 °F 10.9 °F 51% 30.22 in 10.0 mi East 3.5 mph - N/A   Clear
2:53 AM 25.0 °F 20.7 °F 8.1 °F 49% 30.24 in 10.0 mi NNW 3.5 mph - N/A   Clear
3:53 AM 19.9 °F 13.4 °F 8.1 °F 60% 30.26 in 10.0 mi North 4.6 mph - N/A   Clear
4:53 AM 18.0 °F 9.8 °F 9.0 °F 68% 30.28 in 10.0 mi North 5.8 mph - N/A   Clear
5:53 AM 21.0 °F 14.6 °F 10.0 °F 63% 30.29 in 10.0 mi ENE 4.6 mph - N/A   Clear
6:53 AM 14.0 °F 5.1 °F 9.0 °F 80% 30.36 in 10.0 mi NNW 5.8 mph - N/A   Clear
7:53 AM 21.0 °F 8.6 °F 10.0 °F 63% 30.35 in 10.0 mi North 12.7 mph - N/A   Clear
8:53 AM 27.0 °F 18.0 °F 10.0 °F 49% 30.34 in 10.0 mi North 9.2 mph - N/A   Clear
9:53 AM 33.1 °F 24.4 °F 10.0 °F 38% 30.31 in 10.0 mi North 11.5 mph - N/A   Clear
10:53 AM 39.0 °F 34.0 °F 10.9 °F 32% 30.27 in 10.0 mi North 6.9 mph - N/A   Clear
11:53 AM 41.0 °F 39.0 °F 10.0 °F 28% 30.23 in 10.0 mi Variable 3.5 mph - N/A   Clear
12:53 PM 44.1 °F 38.6 °F 8.1 °F 23% 30.17 in 10.0 mi North 10.4 mph - N/A   Clear
1:53 PM 46.9 °F - 6.1 °F 19% 30.14 in 10.0 mi North 5.8 mph - N/A   Clear
2:53 PM 46.9 °F - 6.1 °F 19% 30.14 in 10.0 mi Variable 3.5 mph - N/A   Clear
3:53 PM 48.0 °F - 6.1 °F 18% 30.16 in 10.0 mi Calm Calm - N/A   Clear
4:53 PM 46.9 °F - 6.1 °F 19% 30.17 in 10.0 mi Calm Calm - N/A   Clear
5:53 PM 42.1 °F 40.2 °F 8.1 °F 25% 30.17 in 10.0 mi ESE 3.5 mph - N/A   Clear
6:53 PM 32.0 °F 25.6 °F 7.0 °F 35% 30.25 in 10.0 mi North 6.9 mph - N/A   Clear
7:53 PM 24.1 °F 17.0 °F 8.1 °F 51% 30.25 in 10.0 mi North 5.8 mph - N/A   Clear
8:53 PM 28.0 °F 19.3 °F 7.0 °F 41% 30.21 in 10.0 mi NNE 9.2 mph - N/A   Clear
9:53 PM 28.0 °F 19.3 °F 8.1 °F 43% 30.18 in 10.0 mi North 9.2 mph - N/A   Clear
10:53 PM 28.9 °F 20.4 °F 9.0 °F 43% 30.16 in 10.0 mi North 9.2 mph - N/A   Clear
11:53 PM 26.1 °F 17.6 °F 9.0 °F 49% 30.16 in 10.0 mi NNE 8.1 mph - N/A   Clear